Waukesha, WI

7:08 AM CDT on April 25, 2017 (GMT -0500)
Waukesha County

Weather History for KUES - January, 2012

Change the Weather History Date:

Sunday, January 1, 2012

  Actual Average Record
Temperature  
Mean Temperature 28 °F -  
Max Temperature 33 °F 26 °F 43 °F (1950)
Min Temperature 23 °F 12 °F -12 °F (1968)
Degree Days  
Heating Degree Days 37    
Moisture  
Dew Point 26 °F    
Average Humidity 89    
Maximum Humidity 100    
Minimum Humidity 74    
Precipitation  
Precipitation 0.00 in - - ()
Sea Level Pressure  
Sea Level Pressure 29.78 in    
Wind  
Wind Speed 12 mph (West)    
Max Wind Speed 28 mph    
Max Gust Speed 39 mph    
Visibility 5 miles    
Events Rain , Snow    
Averages and records for this station are not official NWS values.
T = Trace of Precipitation, MM = Missing Value Source: NWS Daily Summary

Daily Weather History Graph

Daily Weather History Graph

Search for Another Location

Airport or City:

Trip Planner

Search our weather history database for the weather conditions in past years. The results will help you decide how hot, cold, wet, or windy it might be!

Date:

Astronomy

Jan. 01, 2012 Rise Set
Actual Time 7:24 AM CST 4:28 PM CST
Civil Twilight 6:52 AM CST 5:00 PM CST
Nautical Twilight 6:16 AM CST 5:36 PM CST
Astronomical Twilight 5:41 AM CST 6:11 PM CST
Moon 11:22 AM CST (1/1) 12:13 AM CST (1/1)
Length of Visible Light 10h 08m
Length of Day
9h 04m
First Quarter, 55% of the Moon is Illuminated
Jan 1
First Quarter
Jan 9
Full
Jan 16
Last Quarter
Jan 23
New
Jan 30
First Quarter

Hourly Weather History & Observations

Time (CST) Temp. Windchill Dew Point Humidity Pressure Visibility Wind Dir Wind Speed Gust Speed Precip Events Conditions
12:15 AM 33.8 °F 26.4 °F 32.0 °F 93% 29.61 in 7.0 mi SSE 9.2 mph - N/A   Clear
12:35 AM 33.8 °F 27.7 °F 32.0 °F 93% 29.59 in 7.0 mi SE 6.9 mph - N/A   Clear
12:55 AM 33.8 °F 27.0 °F 32.0 °F 93% 29.57 in 7.0 mi SE 8.1 mph - N/A   Clear
1:15 AM 33.8 °F 27.0 °F 32.0 °F 93% 29.56 in 7.0 mi SE 8.1 mph - N/A   Clear
1:35 AM 33.8 °F 28.6 °F 32.0 °F 93% 29.55 in 7.0 mi SE 5.8 mph - N/A   Clear
2:15 AM 32.0 °F 28.7 °F 32.0 °F 100% 29.54 in 7.0 mi SE 3.5 mph - N/A   Mostly Cloudy
2:35 AM 32.0 °F - 32.0 °F 100% 29.54 in 7.0 mi Calm Calm - N/A   Overcast
2:55 AM 32.0 °F - 32.0 °F 100% 29.53 in 4.0 mi Calm Calm - N/A   Overcast
3:15 AM 32.0 °F - 32.0 °F 100% 29.53 in 4.0 mi Calm Calm - N/A   Overcast
3:35 AM 32.0 °F - 32.0 °F 100% 29.52 in 4.0 mi Calm Calm - N/A   Overcast
3:55 AM 32.0 °F - 32.0 °F 100% 29.51 in 4.0 mi Calm Calm - N/A   Overcast
4:15 AM 32.0 °F - 32.0 °F 100% 29.51 in 3.0 mi Calm Calm - N/A Rain Rain
4:35 AM 32.0 °F - 32.0 °F 100% 29.49 in 2.5 mi Calm Calm - N/A Rain Light Rain
5:45 AM 33.8 °F 25.3 °F 33.8 °F 100% 29.52 in 2.0 mi West 11.5 mph - N/A Rain Light Rain
6:45 AM 30.2 °F 18.5 °F 30.2 °F 100% 29.58 in 1.0 mi WNW 17.3 mph 27.6 mph N/A Snow Light Snow
7:45 AM 30.2 °F 16.8 °F 30.2 °F 100% 29.63 in 1.0 mi WNW 23.0 mph 34.5 mph N/A Snow Light Snow
8:45 AM 30.2 °F 17.8 °F 30.2 °F 100% 29.68 in 1.0 mi WNW 19.6 mph 29.9 mph N/A Snow Light Snow
9:20 AM 30.2 °F 16.8 °F 30.2 °F 100% 29.71 in 7.0 mi WNW 23.0 mph 34.5 mph N/A   Overcast
9:45 AM 30.2 °F 16.8 °F 26.6 °F 86% 29.73 in 7.0 mi WNW 23.0 mph 36.8 mph N/A   Overcast
10:45 AM 28.4 °F 13.8 °F 23.0 °F 80% 29.75 in 10.0 mi West 25.3 mph 35.7 mph N/A   Overcast
12:45 PM 28.4 °F 14.7 °F 21.2 °F 74% 29.77 in 7.0 mi West 21.9 mph 34.5 mph N/A   Overcast
1:25 PM 28.4 °F 16.2 °F 24.8 °F 86% 29.77 in 4.0 mi West 17.3 mph 28.8 mph N/A Snow Light Snow
1:45 PM 26.6 °F 13.8 °F 24.8 °F 93% 29.80 in 2.5 mi West 17.3 mph 28.8 mph N/A Snow Light Snow
2:45 PM 26.6 °F 12.7 °F 23.0 °F 86% 29.84 in 2.5 mi West 20.7 mph 34.5 mph N/A Snow Light Snow
3:10 PM 26.6 °F 13.8 °F 23.0 °F 86% 29.86 in 7.0 mi West 17.3 mph 28.8 mph N/A   Overcast
3:45 PM 26.6 °F 15.2 °F 23.0 °F 86% 29.90 in 3.0 mi West 13.8 mph 29.9 mph N/A Snow Light Snow
4:45 PM 26.6 °F 12.0 °F 21.2 °F 80% 29.93 in 10.0 mi West 23.0 mph 34.5 mph N/A   Overcast
5:45 PM 26.6 °F 14.3 °F 21.2 °F 80% 29.96 in 10.0 mi West 16.1 mph 27.6 mph N/A   Overcast
6:45 PM 24.8 °F 11.1 °F 23.0 °F 93% 29.98 in 2.0 mi West 18.4 mph 29.9 mph N/A Snow Light Snow
7:15 PM 26.6 °F 12.7 °F 21.2 °F 80% 29.99 in 7.0 mi West 20.7 mph - N/A   Overcast
7:45 PM 24.8 °F 11.5 °F 21.2 °F 86% 29.98 in 2.5 mi West 17.3 mph - N/A Snow Light Snow
8:15 PM 26.6 °F 13.1 °F 23.0 °F 86% 29.98 in 2.0 mi West 19.6 mph 25.3 mph N/A Snow Light Snow
8:35 PM 26.6 °F 13.1 °F 23.0 °F 86% 29.99 in 2.5 mi West 19.6 mph 25.3 mph N/A Snow Light Snow
8:45 PM 24.8 °F 11.5 °F 21.2 °F 86% 29.99 in 1.5 mi West 17.3 mph 28.8 mph N/A Snow Light Snow
8:55 PM 26.6 °F 13.1 °F 23.0 °F 86% 29.99 in 1.5 mi West 19.6 mph 28.8 mph N/A Snow Light Snow
9:15 PM 26.6 °F 13.8 °F 21.2 °F 80% 29.99 in 5.0 mi WNW 17.3 mph 29.9 mph N/A Snow Light Snow
9:35 PM 26.6 °F 11.1 °F 19.4 °F 74% 30.00 in 5.0 mi WNW 26.5 mph 36.8 mph N/A   Haze
9:55 PM 26.6 °F 13.8 °F 19.4 °F 74% 30.00 in 7.0 mi WNW 17.3 mph 27.6 mph N/A Snow Light Snow
10:15 PM 26.6 °F 12.7 °F 21.2 °F 80% 30.00 in 10.0 mi WNW 20.7 mph 31.1 mph N/A   Overcast
10:35 PM 26.6 °F 13.8 °F 19.4 °F 74% 30.00 in 10.0 mi WNW 17.3 mph 29.9 mph N/A   Overcast
11:15 PM 23.0 °F 6.0 °F 17.6 °F 80% 30.01 in 10.0 mi West 27.6 mph 34.5 mph N/A Snow Light Snow
11:35 PM 23.0 °F 6.9 °F 15.8 °F 74% 30.01 in 7.0 mi West 24.2 mph 39.1 mph N/A Snow Light Snow
11:55 PM 23.0 °F 6.0 °F 15.8 °F 74% 30.01 in 10.0 mi WNW 27.6 mph 34.5 mph N/A Snow Light Snow